Wind_Speed
6 7 7 7 6 6 6 6 6 6 6 5 5 5 5 4 4 3 3 3 3 2 2 1 1 1 1 0 1 1 2 3 2 1 1 2 2 2 2 3 3 4 4
6 7 7 6 6 6 5 6 6 5 5 5 5 5 5 4 3 4 3 3 3 2 2 2 2 2 2 1 1 1 1 2 2 2 2 2 2 2 3 3 4 4 4
5 7 7 6 6 6 5 6 6 6 6 6 5 5 4 4 4 4 3 3 3 2 2 2 1 2 1 1 1 1 2 2 2 2 2 2 2 3 3 4 4 5 5
5 6 6 6 6 6 6 6 6 6 6 6 6 5 4 3 4 4 3 3 3 3 2 2 2 2 2 2 1 2 2 2 2 2 2 2 2 3 3 4 4 5 5
5 5 5 6 6 6 6 5 6 6 6 7 6 6 5 4 4 4 4 3 3 3 2 2 2 2 2 2 3 3 3 3 3 3 3 4 3 4 5 5 5 6 5
4 5 5 5 6 6 6 6 6 6 7 7 7 7 6 6 6 6 4 4 4 3 2 2 3 2 3 3 4 4 4 4 4 5 5 5 5 5 6 6 6 7 7
4 5 5 4 5 6 6 6 6 6 6 7 7 7 6 6 7 6 5 5 5 4 3 3 3 3 3 4 4 4 5 5 6 6 6 6 6 6 6 6 6 7 7
5 5 5 5 5 5 6 6 6 6 6 7 8 7 7 6 6 6 6 6 5 5 4 3 3 4 4 4 4 4 5 6 6 6 6 6 6 7 7 7 7 7 7
4 5 5 6 5 5 5 6 6 6 6 7 7 7 7 7 6 7 7 6 6 6 5 4 5 5 4 5 5 6 6 6 6 6 7 7 7 8 8 8 8 8 8
4 4 5 6 6 6 6 6 6 6 6 7 7 7 7 7 7 7 7 7 7 7 7 6 6 6 6 7 6 6 6 7 7 7 7 8 8 8 9 9 10 10 10
5 5 5 5 6 6 6 6 7 7 7 8 7 8 8 8 8 7 7 7 7 7 7 7 8 8 8 7 7 7 7 7 7 7 8 8 9 9 10 10 11 11 11
5 5 5 5 6 7 7 7 7 7 7 8 8 8 9 9 8 7 7 7 7 7 8 8 8 8 9 9 9 9 9 8 8 9 9 9 10 10 10 11 11 11 11
5 5 5 5 6 7 7 7 7 7 7 7 7 8 9 9 9 9 8 8 8 8 8 8 8 9 9 10 9 10 10 10 10 10 11 11 11 11 11 11 12 12 12
6 6 6 5 6 6 6 7 7 7 7 7 8 8 9 9 9 10 10 10 9 9 9 10 9 10 10 10 11 11 11 12 12 12 12 11 11 11 12 12 13 13 13
7 6 6 6 6 7 7 7 8 8 8 8 9 9 9 10 10 10 10 10 10 10 10 10 11 10 11 11 11 11 11 12 12 12 11 11 12 12 12 13 13 14 14
7 7 7 7 7 8 8 8 8 8 8 9 9 9 9 10 10 10 11 11 11 11 11 12 12 12 12 12 11 11 11 11 11 11 12 12 12 13 14 14 15 15 16
7 7 7 7 8 9 9 9 9 9 9 10 10 10 10 10 10 11 11 11 11 11 12 13 12 12 12 12 12 12 12 12 12 12 12 13 14 14 15 16 17 18 18
8 8 8 8 8 9 9 9 9 9 10 10 11 11 11 11 11 12 12 12 12 12 13 13 13 13 13 13 13 12 13 13 13 13 13 14 15 16 16 17 18 19 20
10 10 9 9 8 9 9 9 9 9 9 10 11 12 12 13 13 13 13 13 13 13 13 13 13 14 14 14 13 13 13 14 14 14 14 15 16 17 17 18 19 20 21
11 11 10 10 10 10 10 10 10 10 10 11 11 12 12 12 13 13 14 14 14 14 14 14 14 14 14 14 14 14 14 15 15 16 16 17 18 18 19 20 21 21 22
13 12 12 11 11 11 11 11 11 11 11 12 12 13 13 13 13 14 14 14 15 15 15 15 15 14 14 15 15 16 16 16 16 17 18 19 19 20 21 21 22 22 23
14 14 13 13 13 13 12 12 13 13 13 13 13 14 14 14 14 14 14 14 14 14 15 15 15 16 16 16 17 17 16 17 18 19 19 20 21 21 22 22 22 23 24
15 15 15 14 14 14 14 13 14 15 15 15 15 15 15 16 16 16 16 16 15 15 16 16 16 17 18 18 19 18 18 18 19 20 20 21 21 22 23 23 24 25 26
17 17 16 16 15 15 15 15 16 16 16 16 16 16 17 17 18 18 18 18 17 17 18 18 18 18 19 19 19 19 19 20 20 21 21 22 23 24 24 25 26 26 27
19 18 17 17 17 17 17 17 17 17 17 17 18 18 18 18 18 19 19 19 19 20 19 19 20 20 20 20 20 20 21 21 23 23 23 24 25 26 27 27 28 29 29
21 20 19 19 19 19 18 19 19 18 18 18 19 19 19 19 19 20 20 21 21 21 21 21 21 21 21 21 21 22 22 23 24 25 25 26 26 27 28 29 30 30 31
Wind_Direction
257 250 249 250 248 251 255 259 261 266 265 254 254 261 258 254 244 239 246 253 262 257 251 283 277 244 235 231 270 265 266 256 254 254 247 257 255 245 251 260 259 252 253
251 245 242 236 237 246 252 255 258 259 252 245 254 261 257 248 237 229 230 246 255 242 234 241 244 229 220 223 288 292 278 266 257 251 257 266 266 256 256 264 264 264 263
245 247 245 233 232 241 255 251 252 253 248 246 250 254 249 243 236 221 228 233 226 228 231 251 224 217 210 221 263 277 293 291 284 260 262 259 271 270 266 268 271 270 261
248 246 236 231 229 240 251 254 254 250 242 238 243 246 241 236 228 219 233 220 214 226 247 248 239 234 235 248 258 276 291 296 295 279 273 276 282 280 277 281 279 275 266
240 231 233 238 241 242 245 253 250 245 243 243 244 241 237 233 228 227 232 218 217 224 235 245 252 249 246 259 267 278 285 289 287 287 282 275 272 273 278 282 284 285 282
260 244 242 242 239 241 249 254 251 250 247 244 243 236 233 232 232 229 220 215 221 233 244 258 267 264 260 264 272 278 279 284 286 286 286 282 277 280 281 283 287 288 287
271 260 257 249 242 250 257 259 255 250 243 242 239 237 230 227 223 221 219 222 232 242 246 249 255 269 269 268 279 280 282 283 287 284 280 278 280 284 287 288 288 288 286
272 268 261 254 251 252 256 252 252 249 243 239 233 230 221 216 218 219 223 231 240 244 251 251 254 265 272 278 284 287 287 285 285 282 276 276 279 282 286 289 287 286 286
278 274 263 253 254 253 249 247 250 251 243 233 223 226 220 218 224 224 223 232 241 248 252 261 266 260 268 277 284 287 288 288 287 282 276 278 281 283 286 289 289 288 288
286 281 262 257 254 253 250 250 251 251 242 226 218 220 220 220 225 224 224 235 241 244 250 260 266 266 275 281 284 288 292 290 289 287 284 283 283 283 286 289 289 289 289
281 280 272 262 256 257 253 250 252 247 238 227 224 225 225 227 232 230 230 233 242 247 255 263 267 270 276 283 285 287 287 287 290 290 289 288 287 285 287 288 290 290 289
283 279 276 268 260 256 251 251 252 246 239 232 231 229 229 228 227 231 231 238 248 256 261 267 268 273 276 281 285 283 283 284 288 291 291 290 290 289 289 290 291 291 291
286 285 283 278 262 253 247 245 245 240 239 237 235 234 236 232 233 236 238 244 251 259 263 267 270 275 277 278 280 282 281 283 286 289 289 289 289 289 291 291 292 293 295
277 277 277 273 261 251 248 241 239 239 245 245 244 242 241 239 239 244 245 249 257 261 263 267 271 275 278 279 280 282 283 283 284 285 287 288 290 292 293 294 294 295 296
274 272 272 264 255 250 252 247 242 245 251 251 249 247 248 246 243 246 250 254 259 263 265 269 272 276 278 280 283 284 285 286 286 286 286 289 291 293 294 295 295 296 297
274 272 269 263 253 249 251 249 247 251 254 254 252 249 248 248 244 245 253 257 261 264 266 269 272 275 278 280 281 284 288 287 287 289 289 289 291 292 293 294 295 296 297
278 274 271 268 253 250 253 253 255 253 253 254 253 253 248 245 246 249 254 257 263 267 268 268 272 274 278 280 280 282 286 288 288 288 288 289 290 291 292 293 295 296 297
274 273 272 271 261 256 255 254 255 257 258 257 252 249 250 249 251 253 255 259 265 269 271 271 273 276 277 278 279 281 284 287 288 288 288 288 290 292 293 295 297 298 299
270 269 269 270 267 260 257 257 257 259 258 256 251 250 251 252 254 256 258 261 265 269 274 274 275 277 276 277 278 281 284 287 289 289 289 289 291 294 295 296 298 300 300
263 265 266 269 269 266 261 258 256 257 259 257 253 251 253 255 257 259 259 261 264 268 272 274 275 276 274 276 276 280 285 288 289 290 291 292 293 294 295 297 298 299 301
261 262 265 269 267 267 267 263 257 258 260 257 255 254 253 255 258 259 261 263 266 269 272 273 273 274 276 278 278 280 284 286 286 288 291 293 293 295 297 298 299 300 301
259 258 261 265 264 263 264 265 263 262 262 262 260 258 257 257 258 260 263 267 268 270 273 274 274 274 276 279 279 280 283 286 286 288 290 292 294 296 298 299 300 301 302
258 258 259 262 262 263 264 266 267 267 266 265 264 262 261 259 261 264 266 267 270 272 273 275 276 276 276 278 281 282 284 287 288 289 291 293 295 298 299 299 300 302 303
258 258 261 262 263 264 266 268 269 270 269 267 264 262 262 262 265 266 268 269 271 272 273 274 276 277 277 277 279 281 284 287 289 290 292 293 296 299 300 300 301 302 302
257 257 260 262 261 264 266 267 267 267 268 268 267 265 265 265 266 267 267 269 270 271 271 273 276 278 279 279 279 281 283 285 287 289 291 293 296 299 300 301 301 301 301
254 255 258 261 262 262 264 265 265 265 266 267 267 266 267 267 267 267 267 269 271 271 271 273 276 276 276 277 278 280 283 285 287 290 292 294 295 298 299 300 300 300 301
Height
5856 5856 5857 5857 5857 5857 5857 5858 5858 5858 5857 5858 5858 5858 5858 5858 5858 5858 5858 5858 5858 5858 5857 5857 5857 5857 5857 5856 5856 5856 5856 5855 5855 5855 5855 5854 5854 5854 5854 5854 5854 5854 5853
5854 5855 5855 5855 5855 5856 5856 5856 5856 5856 5856 5856 5857 5857 5857 5857 5857 5857 5857 5857 5857 5857 5857 5856 5856 5856 5856 5856 5855 5855 5855 5855 5855 5854 5854 5854 5854 5854 5853 5853 5853 5853 5852
5852 5852 5853 5853 5854 5854 5854 5854 5855 5855 5855 5855 5856 5856 5856 5856 5856 5856 5856 5856 5856 5856 5856 5856 5855 5855 5855 5855 5855 5855 5855 5854 5854 5854 5854 5853 5853 5853 5853 5852 5852 5852 5851
5850 5850 5851 5851 5852 5852 5852 5853 5853 5853 5854 5854 5854 5855 5855 5855 5855 5855 5855 5855 5855 5855 5855 5855 5855 5855 5855 5855 5854 5854 5854 5854 5853 5853 5853 5853 5852 5852 5852 5852 5851 5850 5850
5849 5849 5850 5850 5851 5851 5851 5851 5852 5852 5852 5853 5853 5853 5854 5854 5854 5854 5854 5854 5855 5854 5854 5854 5854 5854 5854 5854 5854 5854 5853 5853 5853 5852 5852 5852 5851 5851 5851 5850 5850 5849 5849
5848 5848 5848 5849 5849 5849 5849 5850 5850 5850 5851 5851 5851 5852 5852 5852 5852 5853 5853 5853 5854 5854 5854 5854 5853 5853 5853 5853 5853 5852 5852 5852 5852 5851 5851 5850 5850 5850 5850 5849 5848 5848 5847
5847 5847 5847 5847 5847 5848 5848 5848 5848 5848 5849 5849 5850 5850 5850 5851 5851 5852 5852 5852 5852 5852 5853 5853 5852 5852 5852 5852 5852 5851 5851 5851 5850 5850 5849 5849 5849 5848 5848 5847 5847 5846 5845
5846 5845 5845 5846 5846 5846 5846 5846 5846 5847 5847 5847 5848 5848 5849 5849 5850 5850 5851 5851 5852 5851 5852 5851 5851 5851 5851 5851 5850 5850 5849 5849 5849 5848 5848 5847 5847 5846 5846 5845 5845 5844 5843
5844 5843 5843 5844 5844 5844 5844 5845 5845 5845 5845 5845 5846 5847 5847 5848 5849 5849 5850 5850 5850 5850 5850 5850 5850 5850 5849 5849 5849 5849 5848 5847 5847 5846 5846 5845 5845 5844 5844 5843 5842 5842 5841
5842 5842 5842 5842 5842 5842 5843 5843 5843 5843 5843 5844 5844 5845 5846 5847 5847 5848 5848 5848 5849 5849 5849 5849 5849 5848 5848 5848 5847 5847 5846 5846 5845 5844 5844 5843 5843 5842 5842 5841 5840 5839 5839
5841 5840 5840 5840 5840 5840 5841 5841 5841 5841 5842 5842 5843 5844 5844 5845 5845 5846 5846 5847 5847 5847 5847 5847 5847 5847 5846 5846 5846 5845 5844 5844 5843 5842 5842 5841 5841 5840 5839 5838 5837 5836 5836
5839 5839 5838 5838 5838 5838 5839 5839 5840 5840 5840 5841 5841 5842 5842 5843 5844 5844 5845 5845 5845 5845 5845 5845 5845 5845 5844 5844 5843 5843 5842 5842 5841 5840 5839 5839 5838 5837 5837 5836 5835 5833 5833
5837 5837 5836 5836 5836 5836 5837 5838 5838 5838 5839 5839 5840 5840 5841 5841 5842 5842 5843 5843 5843 5843 5843 5843 5843 5843 5842 5842 5841 5841 5840 5839 5838 5838 5837 5836 5835 5834 5834 5833 5832 5830 5829
5835 5835 5834 5834 5834 5835 5835 5836 5836 5837 5837 5837 5838 5838 5839 5839 5840 5840 5840 5841 5841 5841 5841 5841 5841 5840 5840 5839 5839 5838 5837 5836 5836 5835 5834 5833 5832 5831 5830 5829 5828 5827 5826
5833 5833 5833 5832 5833 5833 5833 5834 5834 5835 5835 5835 5836 5836 5836 5837 5837 5838 5838 5839 5839 5838 5838 5838 5838 5837 5837 5836 5836 5835 5834 5833 5832 5832 5831 5830 5829 5828 5827 5826 5825 5824 5822
5831 5831 5830 5830 5831 5831 5831 5831 5832 5832 5833 5833 5833 5833 5834 5834 5835 5835 5836 5836 5836 5836 5836 5835 5835 5834 5834 5833 5833 5832 5831 5830 5829 5829 5828 5827 5826 5825 5824 5822 5821 5820 5818
5829 5828 5828 5828 5828 5828 5829 5829 5829 5830 5830 5830 5831 5831 5831 5832 5832 5832 5833 5833 5833 5833 5832 5832 5832 5831 5831 5830 5830 5829 5828 5827 5826 5825 5824 5823 5822 5821 5820 5818 5817 5815 5813
5826 5826 5826 5826 5826 5826 5826 5826 5827 5827 5827 5827 5827 5828 5828 5829 5829 5829 5830 5830 5830 5829 5829 5828 5828 5828 5827 5827 5826 5825 5825 5824 5822 5821 5820 5819 5818 5817 5815 5814 5812 5810 5808
5823 5823 5823 5823 5823 5823 5823 5824 5824 5824 5824 5824 5824 5825 5825 5826 5826 5826 5826 5826 5826 5826 5825 5825 5824 5824 5823 5823 5822 5821 5821 5820 5818 5817 5816 5815 5814 5812 5810 5809 5807 5805 5802
5819 5819 5819 5820 5820 5820 5820 5821 5821 5821 5821 5821 5821 5822 5822 5822 5822 5822 5822 5822 5822 5822 5822 5821 5821 5820 5819 5819 5818 5817 5817 5815 5814 5813 5812 5810 5809 5807 5805 5803 5801 5799 5797
5815 5816 5816 5816 5816 5816 5817 5817 5817 5818 5818 5818 5818 5818 5818 5818 5819 5819 5819 5818 5818 5818 5818 5817 5817 5816 5815 5814 5814 5813 5812 5811 5810 5809 5807 5806 5804 5802 5800 5798 5796 5793 5791
5811 5812 5812 5812 5812 5813 5813 5813 5813 5813 5813 5814 5814 5814 5814 5814 5814 5815 5814 5814 5814 5814 5814 5813 5812 5812 5811 5810 5809 5808 5807 5806 5805 5804 5802 5800 5798 5796 5794 5792 5790 5787 5784
5806 5807 5807 5808 5808 5808 5809 5809 5808 5808 5808 5809 5809 5809 5809 5810 5810 5810 5810 5810 5809 5809 5809 5808 5808 5807 5806 5805 5804 5803 5802 5801 5800 5798 5796 5795 5793 5791 5788 5786 5783 5780 5778
5801 5802 5802 5803 5803 5803 5803 5804 5803 5803 5803 5804 5804 5804 5804 5804 5804 5805 5805 5804 5804 5804 5804 5803 5802 5802 5801 5800 5799 5798 5796 5795 5794 5792 5790 5788 5786 5784 5782 5779 5776 5773 5770
5795 5796 5797 5797 5798 5798 5798 5798 5798 5798 5798 5798 5798 5799 5799 5799 5799 5799 5799 5799 5799 5798 5798 5798 5797 5796 5795 5794 5793 5792 5791 5789 5788 5786 5784 5782 5780 5778 5775 5772 5769 5766 5763
5788 5789 5790 5791 5791 5791 5792 5792 5792 5792 5792 5793 5793 5793 5793 5793 5793 5793 5793 5793 5793 5792 5792 5791 5791 5790 5789 5788 5787 5786 5784 5783 5781 5779 5777 5775 5773 5770 5767 5765 5762 5758 5755